Weather History for Vero Beach, FL

Change the Weather History Date:

Saturday, July 13, 2013

  Actual Average Record
Temperature  
Mean Temperature 79 °F 82 °F  
Max Temperature 86 °F 90 °F 98 °F (1987)
Min Temperature 71 °F 73 °F 68 °F (1986)
Degree Days  
Heating Degree Days 0 0  
Month to date heating degree days 0 0  
Since 1 June heating degree days 0 0  
Since 1 July heating degree days 0 0  
Cooling Degree Days 14 17  
Month to date cooling degree days 203 212  
Year to date cooling degree days 1615 1474  
Since 1 June cooling degree days 708 668  
Growing Degree Days 28 (Base 50)    
Moisture  
Dew Point 73 °F    
Average Humidity 87    
Maximum Humidity 100    
Minimum Humidity 74    
Precipitation  
Precipitation 0.21 in 0.18 in 2.14 in (1991)
Month to date precipitation 2.10 2.43  
Year to date precipitation 22.81 24.47  
Sea Level Pressure  
Sea Level Pressure 29.99 in    
Wind  
Wind Speed 5 mph (SSE)    
Max Wind Speed 20 mph    
Max Gust Speed 25 mph    
Visibility 10 miles    
Events Rain , Thunderstorm    
T = Trace of Precipitation, MM = Missing Value Source: NWS Daily Summary

Daily Weather History Graph

Daily Weather History Graph

Search for Another Location

Airport:

Trip Planner

Search our weather history database for the weather conditions in past years. The results will help you decide how hot, cold, wet, or windy it might be!

Date:

Astronomy

Jul. 13, 2013 Rise Set
Actual Time 6:34 AM EDT 8:19 PM EDT
Civil Twilight 6:08 AM EDT 8:45 PM EDT
Nautical Twilight 5:37 AM EDT 9:17 PM EDT
Astronomical Twilight 5:04 AM EDT 9:50 PM EDT
Moon 11:18 AM EDT (7/13) 11:33 PM EDT (7/13)
Length of Visible Light 14h 37m
Length of Day
13h 44m
Waxing Crescent, 25% of the Moon is Illuminated
Jul 13
Waxing Crescent
Jul 15
First Quarter
Jul 22
Full
Jul 29
Last Quarter
Aug 6
New

Hourly Weather History & Observations

Time (EDT) Temp. Heat Index Dew Point Humidity Pressure Visibility Wind Dir Wind Speed Gust Speed Precip Events Conditions
12:53 AM 75.0 °F - 72.0 °F 90% 29.96 in 10.0 mi SW 4.6 mph - N/A   Clear
1:53 AM 73.9 °F - 72.0 °F 93% 29.94 in 10.0 mi SSW 3.5 mph - N/A   Clear
2:53 AM 73.9 °F - 72.0 °F 93% 29.94 in 10.0 mi Calm Calm - N/A   Clear
3:53 AM 73.0 °F - 72.0 °F 96% 29.95 in 10.0 mi Calm Calm - N/A   Partly Cloudy
4:53 AM 72.0 °F - 71.1 °F 97% 29.94 in 10.0 mi Calm Calm - N/A   Clear
5:53 AM 71.1 °F - 71.1 °F 100% 29.94 in 10.0 mi Calm Calm - N/A   Clear
6:26 AM 71.6 °F - 71.6 °F 100% 29.95 in 10.0 mi Calm Calm - N/A   Mostly Cloudy
6:53 AM 72.0 °F - 71.1 °F 97% 29.95 in 10.0 mi Calm Calm - N/A   Scattered Clouds
7:53 AM 75.9 °F - 73.9 °F 94% 29.96 in 10.0 mi Calm Calm - N/A   Clear
8:53 AM 80.1 °F 84.5 °F 73.9 °F 81% 29.97 in 10.0 mi SE 4.6 mph - N/A   Clear
9:53 AM 82.9 °F 90.2 °F 75.0 °F 77% 29.99 in 10.0 mi SE 4.6 mph - N/A   Partly Cloudy
10:53 AM 84.0 °F 91.9 °F 75.0 °F 74% 29.99 in 10.0 mi ESE 8.1 mph - N/A   Scattered Clouds
11:01 AM 82.4 °F 89.5 °F 75.2 °F 79% 30.00 in 10.0 mi ESE 11.5 mph - N/A   Mostly Cloudy
11:15 AM 84.2 °F 92.3 °F 75.2 °F 74% 29.99 in 10.0 mi ESE 9.2 mph - N/A   Scattered Clouds
11:53 AM 84.9 °F 93.3 °F 75.0 °F 72% 29.99 in 10.0 mi ESE 13.8 mph - N/A   Scattered Clouds
12:21 PM 84.2 °F 92.3 °F 75.2 °F 74% 30.00 in 10.0 mi SE 17.3 mph - N/A Thunderstorm Clear
12:35 PM 82.4 °F 89.5 °F 75.2 °F 79% 30.00 in 10.0 mi SE 18.4 mph 24.2 mph N/A Thunderstorm Scattered Clouds
12:53 PM 84.0 °F 92.6 °F 75.9 °F 76% 29.99 in 10.0 mi ESE 15.0 mph - N/A Thunderstorm Scattered Clouds
1:25 PM 84.2 °F 92.3 °F 75.2 °F 74% 29.99 in 10.0 mi ESE 13.8 mph - N/A   Mostly Cloudy
1:53 PM 82.9 °F 90.8 °F 75.9 °F 79% 29.98 in 10.0 mi ESE 13.8 mph - N/A   Mostly Cloudy
2:26 PM 80.6 °F 86.2 °F 75.2 °F 84% 30.00 in 10.0 mi SE 16.1 mph - N/A Thunderstorm Scattered Clouds
2:53 PM 78.1 °F - 68.0 °F 71% 30.01 in 10.0 mi South 13.8 mph 25.3 mph N/A Thunderstorm Mostly Cloudy
2:55 PM 77.0 °F - 68.0 °F 74% 30.01 in 10.0 mi SSW 19.6 mph 25.3 mph N/A Thunderstorm Mostly Cloudy
3:02 PM 77.0 °F - 68.0 °F 74% 30.00 in 10.0 mi South 16.1 mph 24.2 mph N/A Thunderstorm Mostly Cloudy
3:53 PM 73.9 °F - 73.0 °F 97% 30.01 in 9.0 mi SSW 8.1 mph - 0.01 in Rain , Thunderstorm Light Thunderstorms and Rain
4:00 PM 73.4 °F - 73.4 °F 100% 30.00 in 5.0 mi SSW 8.1 mph - 0.00 in Rain , Thunderstorm Light Thunderstorms and Rain
4:34 PM 73.4 °F - 73.4 °F 100% 30.00 in 4.0 mi SSW 8.1 mph - 0.10 in Rain , Thunderstorm Rain
4:53 PM 73.9 °F - 72.0 °F 93% 29.99 in 6.0 mi SSW 5.8 mph - 0.14 in Rain , Thunderstorm Rain
5:03 PM 73.4 °F - 73.4 °F 100% 30.00 in 7.0 mi SSW 6.9 mph - 0.02 in Rain Light Rain
5:53 PM 73.9 °F - 73.0 °F 97% 29.99 in 10.0 mi SSE 4.6 mph - 0.05 in Rain Light Rain
6:53 PM 75.9 °F - 73.9 °F 94% 29.98 in 10.0 mi SSE 5.8 mph - 0.01 in   Partly Cloudy
7:53 PM 75.0 °F - 73.9 °F 96% 29.98 in 10.0 mi SSE 4.6 mph - N/A   Clear
8:53 PM 75.0 °F - 73.9 °F 96% 30.02 in 10.0 mi SE 3.5 mph - N/A   Clear
9:53 PM 73.9 °F - 73.0 °F 97% 30.02 in 10.0 mi SE 3.5 mph - N/A   Clear
10:53 PM 73.9 °F - 72.0 °F 93% 30.02 in 10.0 mi South 4.6 mph - N/A   Clear
11:53 PM 73.0 °F - 72.0 °F 96% 30.03 in 10.0 mi SSE 5.8 mph - N/A   Clear